Regional Weather Roundup
Issued by NWS

Home | Current Version | Previous Version | Graphics & Text | Print | Product List | Glossary On
Versions: 1 2 3 4 5 6 7 8 9 10 11 12 13 14 15 16 17 18 19 20 21 22 23 24 25 26 27 28 29 30 31 32 33 34 35 36 37 38 39 40 41 42 43 44 45 46 47 48 49 50
000
ASUS45 KCYS 050410
RWRWY

WYOMING REGIONAL WEATHER ROUNDUP
NATIONAL WEATHER SERVICE CHEYENNE WY
1000 PM MDT SAT JUL 04 2015

NOTE:  "FAIR" INDICATES FEW OR NO CLOUDS BELOW 12,000 FEET
WITH NO SIGNIFICANT WEATHER AND/OR OBSTRUCTIONS TO VISIBILITY.

WYZ001-050500-
YELLOWSTONE NATIONAL PARK

CITY           SKY/WX    TMP DP  RH WIND       PRES   REMARKS
LK YELLOWSTONE   N/A     61  39  44 CALM      30.18R
W YELLOWSTONE  NOT AVBL

$$
WYZ002>013-054>058-071-098>099-050500-
NORTHERN WYOMING

CITY           SKY/WX    TMP DP  RH WIND       PRES   REMARKS
JACKSON        FAIR      70  39  32 CALM      30.05R
CODY           FAIR      81  41  24 NW7       29.91R
GREYBULL       FAIR      89  44  20 NW7       29.77R
WORLAND        FAIR      81  49  32 W5        29.79S
SHERIDAN       FAIR      71  59  65 SW3       29.82R
BUFFALO        FAIR      74  52  46 W9        29.92R
GILLETTE       FAIR      72  49  44 S10       29.86R
HULETT         FAIR      73  52  46 SE9       29.87S
NEWCASTLE      FAIR      77  54  44 E9        29.90R

$$
WYZ014>020-022>026-101>103-050500-
CENTRAL WYOMING

CITY           SKY/WX    TMP DP  RH WIND       PRES   REMARKS
BIG PINEY      FAIR      64  42  44 NW9       30.11R
PINEDALE       FAIR      64  45  48 NW7       30.11S
DUBOIS         FAIR      72  32  23 W13       30.10R
LANDER         FAIR      78  44  29 W12       29.91R
RIVERTON       FAIR      84  39  20 NE12      29.90R
CASPER         FAIR      76  54  46 SE6       29.93R
DOUGLAS        FAIR      74  61  63 SE10      29.94R

$$
WYZ021-027>030-104>119-050500-
SOUTHERN WYOMING

CITY           SKY/WX    TMP DP  RH WIND       PRES   REMARKS
EVANSTON       FAIR      70  47  43 SW13      30.15R
KEMMERER       FAIR     N/A N/A N/A SE7       30.14R
FORT BRIDGER   PTCLDY    70  50  49 S12       30.14F
ROCK SPRINGS   FAIR      73  44  35 SW16      30.07S
DIXON          FAIR      69  45  41 CALM      30.12R
RAWLINS        LGT RAIN  66  54  65 SE13      30.12R
SARATOGA       MOCLDY    66  50  55 NE8       30.16R
LARAMIE        FAIR      71  41  33 NW21G37   30.15R
CHEYENNE       FAIR      70  51  51 SW8       30.04R
TORRINGTON     FAIR      72  57  59 S3        29.89R
PINE BLUFFS    FAIR      70  59  68 S8        29.97F THUNDER

$$



USA.gov is the U.S. government's official web portal to all federal, state and local government web resources and services.